Location: Central Falls
(41.8900°N, 71.3929°W)
Time: 03:35:59
(UTC+00:00)

Altair - Pass Details

Date: 08 December 2023
Orbit: 1501 x 1682 km, 47.2° (Epoch: 01 March)

Event Time Altitude Azimuth Distance (km) Brightness Sun altitude
Rises 13:48:01 0° 261° (W) 4,831 9.8 14.5°
Reaches altitude 10° 13:51:12 10° 263° (W) 3,822 9.3 14.8°
Maximum altitude 14:00:53 69° 347° (NNW) 1,649 7.8 15.9°
Drops below altitude 10° 14:10:12 10° 71° (ENE) 3,691 9.8 17.0°
Sets 14:13:14 0° 74° (ENE) 4,659 10.3 17.3°
